This is the latest recevied weather packets stored in our database for station/object AD7ZD. If no packets are shown the sender has not sent any weather packets the latest 10 day(s).
| Time | Temp. | Humidity | Pressure | Rain* | Wind** | Luminosity | Snow |
|---|---|---|---|---|---|---|---|
| 1777545087 | 4.44° C | 50% | 1015.4 hPa | 0 mm | - | 0 W/m² | - |
| 1777544783 | 3.89° C | 47% | 1015.3 hPa | 0 mm | - | 0 W/m² | - |
| 1777544479 | 3.89° C | 44% | 1015.5 hPa | 0 mm | - | 0 W/m² | - |
| 1777544175 | 5.56° C | 38% | 1015.3 hPa | 0 mm | - | 0 W/m² | - |
| 1777543873 | 6.11° C | 38% | 1015.4 hPa | 0 mm | - | 0 W/m² | - |
| 1777543569 | 6.11° C | 38% | 1015.3 hPa | 0 mm | - | 0 W/m² | - |
| 1777542961 | 6.67° C | 39% | 1015.3 hPa | 0 mm | - | 0 W/m² | - |
| 1777542658 | 6.11° C | 39% | 1015.3 hPa | 0 mm | - | 0 W/m² | - |
| 1777542354 | 5.56° C | 38% | 1015.3 hPa | 0 mm | - | 0 W/m² | - |
| 1777542051 | 5.56° C | 40% | 1015.4 hPa | 0 mm | - | 0 W/m² | - |
| 1777541748 | 5° C | 41% | 1015.3 hPa | 0 mm | - | 0 W/m² | - |
| 1777541445 | 5° C | 41% | 1015.7 hPa | 0 mm | - | 0 W/m² | - |
| 1777541141 | 5.56° C | 43% | 1015.3 hPa | 0 mm | - | 0 W/m² | - |
| 1777540838 | 5° C | 46% | 1015.3 hPa | 0 mm | - | 0 W/m² | - |
| 1777540536 | 5.56° C | 49% | 1015.4 hPa | 0 mm | - | 0 W/m² | - |
| 1777540232 | 5.56° C | 47% | 1015.4 hPa | 0 mm | - | 0 W/m² | - |
| 1777539927 | 5.56° C | 46% | 1015.3 hPa | 0 mm | - | 0 W/m² | - |
| 1777539624 | 5.56° C | 46% | 1015.4 hPa | 0 mm | - | 0 W/m² | - |
| 1777539320 | 5.56° C | 43% | 1015.3 hPa | 0 mm | - | 0 W/m² | - |
| 1777539017 | 6.11° C | 41% | 1015.3 hPa | 0 mm | - | 0 W/m² | - |
| 1777538713 | 7.22° C | 38% | 1015.1 hPa | 0 mm | - | 0 W/m² | - |
| 1777538104 | 8.89° C | 34% | 1015.3 hPa | 0 mm | - | 0 W/m² | - |
| 1777537496 | 8.89° C | 33% | 1015.3 hPa | 0 mm | - | 0 W/m² | - |
| 1777537192 | 8.89° C | 33% | 1015.5 hPa | 0 mm | - | 0 W/m² | - |
| 1777536888 | 7.22° C | 34% | 1015.5 hPa | 0 mm | - | 0 W/m² | - |
* Rain latest hour (hover to see other rain measurements)
** Current wind speed in m/s (hover to see current wind gust speed)